TimeEDT,TemperatureF,Dew PointF,Humidity,Sea Level PressureIn,VisibilityMPH,Wind Direction,Wind SpeedMPH,Gust SpeedMPH,PrecipitationIn,Events,Conditions,WindDirDegrees,DateUTC
12:15 AM,60.8,46.4,59,29.88,10.0,SW,12.7,-,N/A,,Overcast,230,2013-04-09 04:15:00
12:35 AM,60.8,46.4,59,29.89,10.0,SW,12.7,20.7,N/A,,Overcast,230,2013-04-09 04:35:00
12:55 AM,60.8,48.2,63,29.89,10.0,SW,20.7,26.5,N/A,,Scattered Clouds,230,2013-04-09 04:55:00
1:15 AM,60.8,48.2,63,29.91,10.0,WSW,19.6,25.3,N/A,,Mostly Cloudy,250,2013-04-09 05:15:00
1:35 AM,59.0,48.2,67,29.91,10.0,WSW,21.9,26.5,N/A,,Overcast,250,2013-04-09 05:35:00
1:55 AM,57.2,44.6,63,29.93,10.0,West,13.8,-,N/A,,Scattered Clouds,280,2013-04-09 05:55:00
2:15 AM,55.4,42.8,63,29.94,10.0,West,13.8,25.3,N/A,,Partly Cloudy,270,2013-04-09 06:15:00
2:35 AM,51.8,42.8,71,29.95,10.0,West,17.3,23.0,N/A,,Clear,270,2013-04-09 06:35:00
2:55 AM,50.0,41.0,71,29.95,10.0,West,16.1,-,N/A,,Clear,260,2013-04-09 06:55:00
3:15 AM,48.2,41.0,76,29.96,10.0,West,17.3,24.2,N/A,,Clear,270,2013-04-09 07:15:00
3:35 AM,46.4,41.0,81,29.97,9.0,West,16.1,25.3,N/A,,Mostly Cloudy,270,2013-04-09 07:35:00
3:55 AM,46.4,41.0,81,29.99,7.0,West,13.8,19.6,N/A,,Overcast,280,2013-04-09 07:55:00
4:15 AM,44.6,41.0,87,30.00,7.0,WNW,11.5,-,N/A,,Overcast,290,2013-04-09 08:15:00
4:35 AM,44.6,39.2,81,30.02,7.0,West,17.3,20.7,N/A,,Overcast,280,2013-04-09 08:35:00
4:55 AM,44.6,39.2,81,30.03,5.0,WNW,10.4,-,N/A,,Overcast,290,2013-04-09 08:55:00
5:15 AM,42.8,41.0,93,30.03,4.0,WNW,8.1,-,N/A,,Overcast,300,2013-04-09 09:15:00
5:35 AM,42.8,39.2,87,30.03,4.0,West,8.1,17.3,N/A,,Overcast,280,2013-04-09 09:35:00
5:55 AM,42.8,39.2,87,30.04,4.0,WNW,8.1,-,N/A,,Overcast,290,2013-04-09 09:55:00
6:15 AM,42.8,39.2,87,30.05,4.0,WNW,8.1,-,N/A,,Overcast,290,2013-04-09 10:15:00
6:35 AM,42.8,37.4,81,30.06,5.0,WNW,13.8,-,N/A,,Overcast,300,2013-04-09 10:35:00
6:55 AM,41.0,37.4,87,30.07,5.0,WNW,10.4,-,N/A,,Overcast,290,2013-04-09 10:55:00
7:15 AM,41.0,37.4,87,30.08,3.0,WNW,9.2,-,N/A,,Overcast,300,2013-04-09 11:15:00
7:35 AM,39.2,37.4,93,30.09,2.0,WNW,6.9,-,N/A,,Overcast,290,2013-04-09 11:35:00
7:55 AM,39.2,37.4,93,30.10,2.0,WNW,8.1,-,N/A,,Overcast,300,2013-04-09 11:55:00
8:15 AM,39.2,37.4,93,30.11,3.0,WNW,6.9,-,N/A,,Overcast,290,2013-04-09 12:15:00
8:35 AM,39.2,37.4,93,30.11,5.0,WNW,5.8,-,N/A,,Overcast,290,2013-04-09 12:35:00
8:55 AM,39.2,37.4,93,30.11,8.0,West,4.6,-,N/A,,Overcast,260,2013-04-09 12:55:00
9:15 AM,39.2,37.4,93,30.11,9.0,WNW,4.6,-,N/A,,Overcast,290,2013-04-09 13:15:00
9:35 AM,41.0,37.4,87,30.11,10.0,West,4.6,-,N/A,,Overcast,270,2013-04-09 13:35:00
9:55 AM,41.0,37.4,87,30.12,10.0,SSW,5.8,-,N/A,,Overcast,210,2013-04-09 13:55:00
10:15 AM,42.8,37.4,81,30.11,10.0,West,4.6,-,N/A,,Overcast,260,2013-04-09 14:15:00
10:35 AM,44.6,39.2,81,30.11,10.0,Calm,Calm,-,N/A,,Mostly Cloudy,0,2013-04-09 14:35:00
10:55 AM,44.6,37.4,76,30.10,10.0,Calm,Calm,-,N/A,,Clear,0,2013-04-09 14:55:00
11:15 AM,46.4,39.2,76,30.10,10.0,South,5.8,-,N/A,,Clear,170,2013-04-09 15:15:00
11:35 AM,48.2,39.2,71,30.09,10.0,East,4.6,-,N/A,,Clear,90,2013-04-09 15:35:00
11:55 AM,48.2,39.2,71,30.09,10.0,Calm,Calm,-,N/A,,Clear,0,2013-04-09 15:55:00
12:15 PM,51.8,39.2,62,30.08,10.0,Calm,Calm,-,N/A,,Clear,0,2013-04-09 16:15:00
12:35 PM,53.6,41.0,62,30.07,10.0,South,4.6,-,N/A,,Clear,190,2013-04-09 16:35:00
12:55 PM,55.4,39.2,54,30.05,10.0,South,3.5,-,N/A,,Clear,190,2013-04-09 16:55:00
1:15 PM,57.2,41.0,55,30.05,10.0,South,8.1,-,N/A,,Clear,170,2013-04-09 17:15:00
1:35 PM,60.8,41.0,48,30.05,10.0,SW,6.9,-,N/A,,Clear,220,2013-04-09 17:35:00
1:55 PM,62.6,41.0,45,30.04,10.0,SW,5.8,-,N/A,,Clear,220,2013-04-09 17:55:00
2:15 PM,64.4,42.8,45,30.03,10.0,Calm,Calm,-,N/A,,Clear,0,2013-04-09 18:15:00
2:35 PM,64.4,41.0,42,30.03,10.0,WSW,6.9,-,N/A,,Clear,240,2013-04-09 18:35:00
2:55 PM,66.2,42.8,43,30.02,10.0,SW,8.1,-,N/A,,Clear,230,2013-04-09 18:55:00
3:15 PM,66.2,42.8,43,30.02,10.0,West,11.5,-,N/A,,Mostly Cloudy,260,2013-04-09 19:15:00
3:35 PM,66.2,44.6,46,30.00,10.0,SW,8.1,-,N/A,,Overcast,230,2013-04-09 19:35:00
3:55 PM,66.2,44.6,46,29.99,10.0,WSW,11.5,-,N/A,,Overcast,250,2013-04-09 19:55:00
4:15 PM,66.2,44.6,46,29.98,10.0,SW,6.9,-,N/A,,Overcast,230,2013-04-09 20:15:00
4:35 PM,66.2,46.4,49,29.98,10.0,SW,8.1,-,N/A,,Mostly Cloudy,230,2013-04-09 20:35:00
4:55 PM,66.2,46.4,49,29.97,10.0,SW,8.1,-,N/A,,Overcast,230,2013-04-09 20:55:00
5:15 PM,64.4,46.4,52,29.97,10.0,WSW,6.9,-,N/A,,Overcast,240,2013-04-09 21:15:00
5:35 PM,66.2,46.4,49,29.96,10.0,SSW,4.6,-,N/A,,Overcast,210,2013-04-09 21:35:00
5:55 PM,66.2,48.2,52,29.95,10.0,South,6.9,-,N/A,,Mostly Cloudy,190,2013-04-09 21:55:00
6:15 PM,66.2,46.4,49,29.94,10.0,South,5.8,-,N/A,,Mostly Cloudy,180,2013-04-09 22:15:00
6:35 PM,66.2,48.2,52,29.95,10.0,South,5.8,-,N/A,,Overcast,190,2013-04-09 22:35:00
6:55 PM,66.2,48.2,52,29.94,10.0,South,4.6,-,N/A,,Overcast,190,2013-04-09 22:55:00
7:15 PM,66.2,48.2,52,29.93,10.0,SSE,3.5,-,N/A,,Scattered Clouds,160,2013-04-09 23:15:00
7:35 PM,64.4,48.2,56,29.91,10.0,SSE,4.6,-,N/A,,Partly Cloudy,160,2013-04-09 23:35:00
7:55 PM,64.4,48.2,56,29.90,10.0,SSE,3.5,-,N/A,,Mostly Cloudy,160,2013-04-09 23:55:00
8:15 PM,64.4,46.4,52,29.89,10.0,NNE,3.5,-,N/A,,Overcast,30,2013-04-10 00:15:00
8:35 PM,59.0,44.6,59,29.87,10.0,North,6.9,-,N/A,,Overcast,360,2013-04-10 00:35:00
8:55 PM,57.2,44.6,63,29.87,10.0,ENE,6.9,-,N/A,,Overcast,60,2013-04-10 00:55:00
9:15 PM,57.2,46.4,67,29.86,9.0,ESE,4.6,-,N/A,,Overcast,120,2013-04-10 01:15:00
9:35 PM,57.2,48.2,72,29.85,10.0,Calm,Calm,-,N/A,,Overcast,0,2013-04-10 01:35:00
9:55 PM,53.6,44.6,72,29.89,10.0,NW,17.3,27.6,N/A,,Overcast,310,2013-04-10 01:55:00
10:15 PM,50.0,44.6,82,29.93,10.0,North,19.6,29.9,0.01,,Overcast,350,2013-04-10 02:15:00
10:55 PM,46.4,44.6,93,29.94,10.0,North,8.1,-,0.01,,Overcast,10,2013-04-10 02:55:00
11:15 PM,46.4,44.6,93,29.92,7.0,ESE,6.9,-,N/A,,Overcast,110,2013-04-10 03:15:00
11:35 PM,48.2,44.6,87,29.95,10.0,ENE,6.9,-,N/A,,Overcast,60,2013-04-10 03:35:00
11:55 PM,48.2,44.6,87,29.94,8.0,ENE,5.8,-,0.02,,Overcast,70,2013-04-10 03:55:00